Location: Huesca
(42.1318°N, 0.4078°W)
Time: 21:58:56
(UTC+02:00)

ACS3 Solar Sail - Pass Details

Date: 23 June 2024
Orbit: 992 x 1023 km, 97.4° (Epoch: 12 July)

Event Time Altitude Azimuth Distance (km) Brightness Sun altitude
Exits shadow 01:01:00 10° 230° (SW) 2,754 6.9 -22.9°
Maximum altitude 01:05:05 18° 272° (W) 2,219 6.8 -23.0°
Drops below altitude 10° 01:09:13 10° 314° (NW) 2,766 7.9 -23.2°
Sets 01:12:36 0° 333° (NNW) 3,718 9.1 -23.4°
